Location: Zlin
(49.2330°N, 17.6670°E)
Time: 03:22:05
(UTC+01:00)

ISS - Pass Details

Date: 07 October 2020
Orbit: 417 x 420 km, 51.6° (Epoch: 25 October)

Event Time Altitude Azimuth Distance (km) Brightness Sun altitude
Rises 19:34:49 0° 281° (W) 2,368 2.1 -13.9°
Reaches altitude 10° 19:37:52 10° 251° (WSW) 1,499 0.1 -14.4°
Maximum altitude 19:39:22 13° 224° (SW) 1,354 -0.7 -14.6°
Drops below altitude 10° 19:40:52 10° 198° (SSW) 1,495 -0.8 -14.9°
Enters shadow 19:43:22 - 171° (S) 2,173 -0.3 -15.3°
